Location: Bergnershof
(48.9468°N, 10.9431°E)
Time: 07:41:15
(UTC+00:00)

Sich 1 - Visible Passes

Search period start: 21 June 2021 00:00
Search period end: 01 July 2021 00:00
Orbit: 595 x 624 km, 82.5° (Epoch: 20 June)

Date Brightness Start Highest point End Pass type
(mag) Time Alt. Az. Time Alt. Az. Time Alt. Az.
22 Jun 5.9 01:48:00 10° ESE 01:49:41 12° E 01:51:22 10° ENE visible
23 Jun 5.6 02:00:37 10° SE 02:03:45 19° E 02:06:53 10° NE visible
24 Jun 4.9 02:14:01 10° SSE 02:17:52 30° E 02:21:45 10° NNE visible
25 Jun 4.0 02:27:49 10° SSE 02:32:04 49° E 02:36:22 10° NNE visible
27 Jun 5.6 01:20:53 10° ESE 01:23:32 16° E 01:26:12 10° NE visible
28 Jun 5.1 01:34:02 10° SE 01:37:38 25° E 01:41:15 10° NNE visible
29 Jun 4.3 01:47:41 10° SSE 01:51:48 40° E 01:55:58 10° NNE visible
30 Jun 3.4 02:01:40 10° S 02:06:02 66° E 02:10:27 10° NNE visible
